#timestamp,LO_Frequency,Hit,StdDev 
1568559615.4,286047010.8,Y
1568559635.3,286047005.1,P
1568559655.1,286047007.6,P
1568559675.8,286047004.8,P
1568559695.7,286047003.8,Y
1568559715.5,286046997.4,P
1568559735.4,286046993.3,N
1568559755.2,286046999.1,N
1568559775.0,286046999.4,N
1568559775.9,286046999.4,N
1568559795.8,286046998.9,N
1568559815.6,286046997.5,N
1568559835.4,286047000.9,N
1568559855.3,286046999.5,N
1568559875.1,286046996.1,N
1568559895.9,286046992.1,N
1568559915.7,286046992.1,N
1568559935.5,286046992.2,N
1568559955.4,286046994.4,N
1568559975.2,286046993.8,N
1568559995.0,286046991.9,N
1568559995.9,286046991.9,N
1568560015.8,286046991.9,N
1568560035.6,286046990.5,N
1568560055.5,286046989.3,N
1568560075.3,286046988.3,N
1568560095.1,286046987.5,N
1568560115.9,286046987.1,N
1568560135.7,286046988.5,N
1568560155.5,286046990.2,N
1568560175.4,286046991.6,N
1568560195.2,286046990.3,N
1568560215.1,286046989.0,N
1568560216.0,286046989.0,N
1568560235.8,286046990.6,N
1568560255.6,286046990.4,N
1568560275.5,286046989.0,N
1568560295.3,286046987.3,Y
1568560315.1,286046997.5,P
1568560335.9,286046999.6,N
1568560355.7,286046998.6,N
1568560375.6,286046999.2,N
1568560395.4,286046998.8,N
1568560415.2,286047000.4,N
1568560435.1,286047000.6,N
1568560436.0,286047000.6,N
1568560455.8,286046998.1,N
1568560475.6,286047000.6,N
1568560495.5,286047001.6,N
1568560515.3,286047002.9,N
1568560535.2,286047003.1,N
1568560555.9,286047003.9,N
1568560575.7,286047000.9,N
1568560595.6,286046998.3,N
1568560615.4,286046999.1,N
1568560635.2,286046998.0,N
1568560655.1,286046993.7,N
1568560656.0,286046993.7,N
1568560675.8,286046997.4,N
1568560695.7,286046996.5,N
1568560715.5,286046995.5,N
1568560735.3,286046996.4,N
1568560755.2,286046996.0,N
1568560775.0,286046996.4,N
1568560775.9,286046996.4,N
1568560795.8,286046998.0,N
1568560815.6,286046999.0,N
1568560835.4,286047000.4,N
1568560855.3,286047000.9,N
1568560875.1,286046999.3,N
1568560895.8,286047002.7,N
1568560915.7,286047000.6,N
1568560935.5,286047000.1,N
1568560955.4,286047003.8,N
1568560975.2,286047004.0,N
1568560995.0,286047000.9,N
1568560995.9,286047000.9,N
1568561015.8,286046998.9,N
1568561035.6,286046998.6,N
1568561055.4,286046997.6,N
1568561075.3,286046997.1,N
1568561095.1,286046998.0,N
1568561115.9,286046994.1,N
1568561135.7,286046994.7,N
1568561155.5,286046995.5,N
1568561175.4,286046993.7,N
1568561195.2,286046994.8,N
1568561215.0,286046991.7,N
1568561215.9,286046991.7,N
1568561235.8,286046996.4,N
1568561255.6,286046993.3,N
1568561275.4,286046994.2,N
1568561295.3,286046990.6,N
1568561315.1,286046989.0,Y
1568561335.9,286046990.3,P
1568561355.7,286046990.4,N
1568561375.5,286046989.1,P
1568561395.4,286046994.8,N
1568561415.2,286046990.6,N
1568561435.1,286046988.6,Y
1568561436.0,286046988.6,P
1568561455.8,286046998.3,N
1568561475.6,286046996.8,N
1568561495.5,286046998.4,N
1568561515.3,286046997.0,N
1568561535.1,286046998.0,N
1568561555.9,286046995.6,N
1568561575.7,286046993.3,N
1568561595.5,286046994.0,N
1568561615.4,286046993.4,N
1568561635.2,286046995.9,N
1568561655.1,286046993.4,N
1568561656.0,286046993.4,N
1568561675.8,286046992.1,N
1568561695.6,286046993.9,N
1568561715.5,286046998.0,N
1568561735.3,286046996.4,N
1568561755.1,286046994.7,N
1568561775.9,286046992.4,Y
1568561795.7,286046998.9,P
1568561815.6,286046999.4,N
1568561835.4,286046999.2,N
1568561855.2,286046998.9,N
1568561875.1,286046999.0,N
1568561876.0,286046999.0,N
1568561895.8,286046999.5,N
1568561915.7,286046999.6,N
1568561935.5,286046998.4,N
1568561955.3,286046999.6,N
1568561975.2,286046995.6,Y
1568561995.9,286046996.7,P
1568562015.7,286046996.6,P
1568562035.6,286046995.0,P
1568562055.4,286046993.9,Y
1568562075.3,286046997.1,P
1568562095.1,286046999.0,P
1568562096.0,286046999.0,N
1568562115.8,286046998.9,N
1568562135.7,286047002.6,N
1568562155.5,286047004.1,N
1568562175.3,286047000.5,N
1568562195.2,286047000.5,N
1568562215.0,286046999.9,N
1568562215.9,286046999.9,N
1568562235.8,286046999.4,N
1568562255.6,286046997.2,N
1568562275.4,286046997.6,N
1568562295.3,286046993.7,Y
1568562315.1,286046997.8,P
1568562335.8,286046997.0,P
1568562355.7,286046997.2,N
1568562375.5,286046999.1,N
1568562395.3,286046999.5,N
1568562415.2,286047002.5,N
1568562435.0,286047000.8,N
1568562435.9,286047000.8,N
1568562455.8,286046998.2,N
1568562475.6,286046998.7,N
1568562495.4,286046999.2,N
1568562515.3,286046997.2,N
1568562535.1,286046993.7,Y
1568562555.8,286046997.2,P
1568562575.7,286046997.8,N
1568562595.5,286046994.2,P
1568562615.4,286046991.8,Y
1568562635.2,286046997.5,P
1568562655.0,286046995.3,P
1568562655.9,286046995.3,P
1568562675.8,286046996.0,Y
1568562695.6,286047002.6,P
1568562715.5,286047003.2,N
1568562735.3,286047005.9,N
1568562755.1,286047005.8,N
1568562775.9,286047005.8,N
1568562795.7,286047001.7,N
1568562815.5,286047003.2,N
1568562835.4,286047003.9,N
1568562855.2,286047001.4,N
1568562875.1,286047001.9,N
1568562876.0,286047001.9,N
1568562895.8,286047000.2,N
1568562915.6,286047000.3,N
1568562935.5,286047001.0,N
1568562955.3,286047002.3,N
1568562975.1,286047001.3,N
1568562995.9,286047005.2,N
1568563015.7,286047005.1,N
1568563035.6,286047005.7,N
1568563055.4,286047007.1,N
1568563075.2,286047008.8,Y
1568563095.1,286047007.3,P
1568563096.0,286047007.3,P
1568563115.8,286047008.6,P
1568563135.6,286047008.0,Y
1568563155.5,286047000.1,P
1568563175.3,286047000.8,N
1568563195.2,286046996.7,N
